Location: Franzen
(48.6167°N, 15.3833°E)
Time: 18:08:48
(UTC+00:00)

Altair - Pass Details

Date: 04 August 2021
Orbit: 1501 x 1682 km, 47.2° (Epoch: 19 September)

Event Time Altitude Azimuth Distance (km) Brightness Sun altitude
Rises 06:55:02 0° 289° (WNW) 4,649 9.5 30.9°
Reaches altitude 10° 06:58:41 10° 277° (W) 3,657 9.0 31.5°
Maximum altitude 07:05:42 26° 227° (SW) 2,639 8.7 32.7°
Drops below altitude 10° 07:12:46 10° 176° (S) 3,668 9.8 33.8°
Sets 07:16:28 0° 164° (SSE) 4,665 10.4 34.4°
